Wheeling, WV

1:24 AM EST on December 06, 2019 (GMT -0500)
Wheeling-Ohio County

Weather History for KHLG - October, 2019

Change the Weather History Date:

Thursday, October 3, 2019

  Actual Average Record
Temperature  
Mean Temperature 76 °F 58 °F  
Max Temperature 89 °F 68 °F 89 °F (2019)
Min Temperature 63 °F 48 °F 30 °F (2003)
Degree Days  
Heating Degree Days 0 8  
Month to date heating degree days 0 23  
Since 1 July heating degree days 1 124  
Cooling Degree Days 11 1  
Month to date cooling degree days 40 3  
Year to date cooling degree days 986 681  
Growing Degree Days 30 (Base 50)    
Moisture  
Dew Point 66 °F    
Average Humidity 68    
Maximum Humidity 93    
Minimum Humidity 42    
Precipitation  
Precipitation T in 0.08 in 0.92 in (1944)
Month to date precipitation T 0.27  
Year to date precipitation 27.98 30.04  
Sea Level Pressure  
Sea Level Pressure 29.95 in    
Wind  
Wind Speed 9 mph (WSW)    
Max Wind Speed 20 mph    
Max Gust Speed 28 mph    
Visibility 10 miles    
Events Rain    
T = Trace of Precipitation, MM = Missing Value Source: NWS Daily Summary

Daily Weather History Graph

Daily Weather History Graph

Search for Another Location

Airport or City:

Astronomy

Oct. 03, 2019 Rise Set
Actual Time 7:20 AM EDT 7:01 PM EDT
Civil Twilight 6:53 AM EDT 7:29 PM EDT
Nautical Twilight 6:22 AM EDT 8:00 PM EDT
Astronomical Twilight 5:50 AM EDT 8:32 PM EDT
Moon 12:50 PM EDT (10/3) 10:39 PM EDT (10/3)
Length of Visible Light 12h 35m
Length of Day
11h 41m
Waxing Crescent, 29% of the Moon is Illuminated
Oct 3
Waxing Crescent
Oct 5
First Quarter
Oct 13
Full
Oct 21
Last Quarter
Oct 27
New

Hourly Weather History & Observations

Time (EDT) Temp. Heat Index Dew Point Humidity Pressure Visibility Wind Dir Wind Speed Gust Speed Precip Events Conditions
12:53 AM 73.0 °F - 69.1 °F 87% 29.93 in 10.0 mi Calm Calm - N/A   Overcast
1:53 AM 73.0 °F - 69.1 °F 87% 29.93 in 10.0 mi Calm Calm - N/A   Overcast
2:53 AM 72.0 °F - 69.1 °F 91% 29.94 in 10.0 mi Calm Calm - N/A   Overcast
3:53 AM 72.0 °F - 69.1 °F 91% 29.93 in 10.0 mi Calm Calm - N/A   Overcast
4:53 AM 72.0 °F - 69.1 °F 91% 29.95 in 10.0 mi West 3.5 mph - N/A   Overcast
5:53 AM 71.1 °F - 69.1 °F 93% 29.96 in 7.0 mi SSW 3.5 mph - N/A   Overcast
6:53 AM 70.0 °F - 68.0 °F 93% 29.96 in 6.0 mi SSE 3.5 mph - N/A   Clear
7:53 AM 71.1 °F - 68.0 °F 90% 29.96 in 8.0 mi South 5.8 mph - N/A   Partly Cloudy
8:53 AM 73.9 °F - 68.0 °F 82% 29.96 in 10.0 mi South 4.6 mph - N/A   Clear
9:53 AM 75.9 °F - 66.9 °F 74% 29.96 in 10.0 mi SW 10.4 mph - N/A   Scattered Clouds
10:53 AM 80.1 °F 82.1 °F 66.0 °F 62% 29.96 in 10.0 mi SW 11.5 mph 19.6 mph N/A   Clear
11:53 AM 84.0 °F 86.5 °F 66.9 °F 56% 29.95 in 10.0 mi SSW 11.5 mph - N/A   Clear
12:53 PM 86.0 °F 87.6 °F 64.9 °F 49% 29.93 in 10.0 mi West 13.8 mph 21.9 mph N/A   Clear
1:53 PM 88.0 °F 88.7 °F 63.0 °F 43% 29.92 in 10.0 mi SW 17.3 mph 24.2 mph N/A   Scattered Clouds
2:53 PM 87.1 °F 87.5 °F 62.1 °F 43% 29.90 in 10.0 mi WSW 13.8 mph 21.9 mph 0.00 in Rain Light Rain
3:53 PM 89.1 °F 90.0 °F 63.0 °F 42% 29.89 in 10.0 mi SW 17.3 mph 26.5 mph 0.00 in   Clear
4:53 PM 86.0 °F 86.8 °F 63.0 °F 46% 29.90 in 10.0 mi WSW 10.4 mph - N/A   Overcast
5:53 PM 84.9 °F 86.1 °F 64.0 °F 49% 29.90 in 10.0 mi WSW 8.1 mph - 0.00 in Rain Light Rain
6:53 PM 82.9 °F 84.6 °F 64.9 °F 54% 29.92 in 10.0 mi West 10.4 mph - 0.00 in Rain Light Rain
7:53 PM 80.1 °F 82.1 °F 66.0 °F 62% 29.95 in 10.0 mi WNW 6.9 mph - 0.00 in   Scattered Clouds
8:53 PM 75.9 °F - 64.9 °F 69% 29.99 in 10.0 mi NW 18.4 mph 26.5 mph N/A   Clear
9:53 PM 73.0 °F - 64.9 °F 76% 30.01 in 10.0 mi WNW 9.2 mph - N/A   Clear
10:53 PM 71.1 °F - 64.0 °F 78% 30.03 in 10.0 mi NNW 11.5 mph - N/A   Partly Cloudy
11:08 PM 70.0 °F - 64.0 °F 81% 30.05 in 10.0 mi NNW 13.8 mph 19.6 mph N/A   Mostly Cloudy
11:53 PM 68.0 °F - 61.0 °F 78% 30.04 in 10.0 mi NW 9.2 mph - N/A   Mostly Cloudy